This demonstration page uses our WeatherBlox Daily Observations layout. Learn more.

Left ArrowRight Arrow

Hourly Observations for November 9, 2022

Temp ( °F °C ) Dew Point ( °F °C ) Humidity (%) Winds ( mph kmh ) Pressure ( in mb ) Visibility ( mi km ) Precip ( " mm )
12:53 am 00:53 Cloudy 66 18.9 63 17.2 90 90 S 17 28 30.10 1019 10 16 0.00 0.00
1:53 am 01:53 Cloudy 67 19.4 63 17.2 87 87 S 18 30 30.09 1019 10 16 0.00 0.00
2:53 am 02:53 Cloudy 67 19.4 64 17.8 90 90 S 18 30 30.09 1019 8 13 0.00 0.00
3:53 am 03:53 Cloudy 67 19.4 63 17.2 87 87 S 17 28 30.07 1018 10 16 0.00 0.00
4:53 am 04:53 Cloudy 67 19.4 64 17.8 90 90 S 20 31 30.06 1018 10 16 0.00 0.00
5:53 am 05:53 Cloudy 67 19.4 63 17.2 87 87 S 21 33 30.06 1018 10 16 0.00 0.00
6:53 am 06:53 Cloudy 67 19.4 63 17.2 87 87 S 18 30 30.06 1018 10 16 0.00 0.00
7:53 am 07:53 Mostly Cloudy 67 19.4 63 17.2 87 87 S 20 31 30.06 1018 10 16 0.00 0.00
8:53 am 08:53 Cloudy 68 20 63 17.2 84 84 S 20 31 30.06 1018 10 16 0.00 0.00
9:53 am 09:53 Cloudy 68 20 63 17.2 84 84 S 20 31 30.06 1018 10 16 0.00 0.00
10:53 am 10:53 Mostly Cloudy 71 21.7 63 17.2 76 76 S 24 39 30.04 1017 10 16 0.00 0.00
11:53 am 11:53 Cloudy 73 22.8 62 16.7 68 68 S 28 44 30.01 1016 10 16 0.00 0.00
12:53 pm 12:53 Cloudy 73 22.8 61 16.1 66 66 S 21 33 29.98 1015 10 16 0.00 0.00
1:53 pm 13:53 Cloudy 73 22.8 62 16.7 68 68 S 15 24 29.94 1014 10 16 0.00 0.00
2:53 pm 14:53 Mostly Cloudy 75 23.9 61 16.1 62 62 S 25 41 29.91 1013 10 16 0.00 0.00
3:53 pm 15:53 Mostly Cloudy 75 23.9 60 15.6 60 60 S 25 41 29.89 1012 10 16 0.00 0.00
4:53 pm 16:53 Mostly Cloudy 74 23.3 60 15.6 62 62 S 22 35 29.87 1012 10 16 0.00 0.00
5:53 pm 17:53 Mostly Cloudy 73 22.8 59 15 61 61 S 15 24 29.86 1011 10 16 0.00 0.00
6:53 pm 18:53 Mostly Cloudy 71 21.7 59 15 66 66 SSE 18 30 29.85 1011 10 16 0.00 0.00
7:53 pm 19:53 Mostly Cloudy 71 21.7 58 14.4 63 63 S 21 33 29.84 1011 10 16 0.00 0.00
8:53 pm 20:53 Mostly Cloudy 70 21.1 58 14.4 66 66 S 23 37 29.83 1010 10 16 0.00 0.00
9:53 pm 21:53 Mostly Cloudy 68 20 58 14.4 70 70 S 18 30 29.84 1011 10 16 0.00 0.00
10:53 pm 22:53 Cloudy 68 20 61 16.1 78 78 S 25 41 29.83 1010 10 16 0.00 0.00
11:53 pm 23:53 Mostly Cloudy 67 19.4 61 16.1 81 81 S 26 43 29.82 1010 10 16 0.00 0.00

Powered by AerisWeather